Location: Unspecified
(0.0000°N, 0.0000°E)
Time: 05:06:17
(UTC+00:00)

SR - Pass Details

Date: 08 October 2022
Orbit: 577 x 874 km, 66.7° (Epoch: 03 December)

Event Time Altitude Azimuth Distance (km) Brightness Sun altitude
Rises 18:47:29 0° 226° (SW) 3,276 ? -14.9°
Reaches altitude 10° 18:50:20 10° 241° (WSW) 2,393 ? -15.6°
Maximum altitude 18:54:34 22° 291° (WNW) 1,732 ? -16.7°
Drops below altitude 10° 18:58:59 10° 341° (NNW) 2,488 ? -17.8°
Sets 19:02:02 0° 355° (N) 3,441 ? -18.5°
